Zurück zum Katalog

STARLINK-32408

AktivKommunikationVLEO
NORAD 62054·PAYLOAD·🇺🇸 United States

Gestartet Nov 21, 2024 von Cape Canaveral Space Force Station

Loading…

Nächste Überflüge (nächste 24 Stunden)

TLE

AktuellSource: CelesTrak SupGP

Epoche: Sep 15, 2026, 02:42 UTC

1 62054C 24216Y   26258.11298611 -.00010964  00000+0 -39690-3 0  2583
2 62054  43.0002 266.5772 0001458 269.8591 149.5451 15.27600715    15

Verfolge STARLINK-32408 in Echtzeit mit AllMySat

Download on the App Store